START_TIME,STEP,MOV.,E45,t_acc.,ALAR?,t_acc.,A12,t_acc.,A24,t_acc.
1981-08-24 12:00:27.350 ,5,0,0.,4.8,148.,4.8,0.,4.8,0.,4.8
1981-08-24 12:00:32.150 ,5,0,0.,4.8,144.,4.8,0.,4.8,0.,4.8
1981-08-24 12:00:36.950 ,5,0,0.,4.8,136.,4.8,0.,4.8,0.,4.8
1981-08-24 12:00:41.750 ,5,0,0.,4.8,132.,4.8,0.,4.8,0.,4.8
1981-08-24 12:00:46.550 ,5,0,0.,4.8,128.,4.8,0.,4.8,0.,4.8
1981-08-24 12:00:51.350 ,4,0,0.,4.8,152.,4.8,0.,4.8,0.,4.8
1981-08-24 12:00:56.150 ,4,0,0.,4.8,156.,4.8,0.,4.8,0.,4.8
1981-08-24 12:01:00.950 ,4,0,0.,4.8,148.,4.8,0.,4.8,0.,4.8
1981-08-24 12:01:05.750 ,4,0,0.,4.8,160.,4.8,0.,4.8,0.,4.8
1981-08-24 12:01:10.550 ,4,0,0.,4.8,152.,4.8,0.,4.8,0.,4.8
1981-08-24 12:01:15.350 ,4,0,0.,4.8,148.,4.8,0.,4.8,0.,4.8
1981-08-24 12:01:20.150 ,4,0,0.,4.8,164.,4.8,0.,4.8,0.,4.8
1981-08-24 12:01:24.950 ,4,0,0.,4.8,148.,4.8,0.,4.8,0.,4.8
1981-08-24 12:01:29.750 ,4,0,0.,4.8,160.,4.8,0.,4.8,0.,4.8
1981-08-24 12:01:34.550 ,4,0,0.,4.8,144.,4.8,0.,4.8,0.,4.8
1981-08-24 12:01:39.350 ,3,0,0.,4.8,156.,4.8,0.,4.8,0.,4.8
1981-08-24 12:01:44.150 ,3,0,0.,4.8,164.,4.8,0.,4.8,0.,4.8
1981-08-24 12:01:48.950 ,3,0,0.,4.8,136.,4.8,0.,4.8,0.,4.8
1981-08-24 12:01:53.750 ,3,0,0.,4.8,140.,4.8,0.,4.8,0.,4.8
1981-08-24 12:01:58.550 ,3,0,0.,4.8,144.,4.8,0.,4.8,0.,4.8
1981-08-24 12:02:03.350 ,3,0,0.,4.8,148.,4.8,0.,4.8,0.,4.8
1981-08-24 12:02:08.150 ,3,0,0.,4.8,176.,4.8,0.,4.8,0.,4.8
1981-08-24 12:02:12.950 ,3,0,0.,4.8,136.,4.8,0.,4.8,0.,4.8
1981-08-24 12:02:17.750 ,3,0,0.,4.8,152.,4.8,0.,4.8,0.,4.8
1981-08-24 12:02:22.550 ,3,0,0.,4.8,136.,4.8,0.,4.8,0.,4.8
1981-08-24 12:02:27.350 ,2,0,0.,4.8,160.,4.8,0.,4.8,0.,4.8
1981-08-24 12:02:32.150 ,2,0,0.,4.8,160.,4.8,0.,4.8,0.,4.8
1981-08-24 12:02:36.950 ,2,0,0.,4.8,132.,4.8,0.,4.8,0.,4.8
1981-08-24 12:02:41.750 ,2,0,0.,4.8,148.,4.8,0.,4.8,0.,4.8
1981-08-24 12:02:46.550 ,2,0,0.,4.8,160.,4.8,0.,4.8,0.,4.8
1981-08-24 12:02:51.350 ,2,0,0.,4.8,156.,4.8,0.,4.8,0.,4.8
1981-08-24 12:02:56.150 ,2,0,0.,4.8,148.,4.8,0.,4.8,0.,4.8
1981-08-24 12:03:00.950 ,2,0,0.,4.8,144.,4.8,0.,4.8,0.,4.8
1981-08-24 12:03:05.750 ,2,0,0.,4.8,148.,4.8,0.,4.8,0.,4.8
1981-08-24 12:03:10.550 ,2,0,0.,4.8,128.,4.8,0.,4.8,0.,4.8
1981-08-24 12:03:15.350 ,1,0,0.,4.8,140.,4.8,0.,4.8,0.,4.8
1981-08-24 12:03:20.150 ,1,0,0.,4.8,144.,4.8,0.,4.8,0.,4.8
1981-08-24 12:03:24.950 ,1,0,0.,4.8,140.,4.8,0.,4.8,0.,4.8
1981-08-24 12:03:29.750 ,1,0,0.,4.8,144.,4.8,0.,4.8,0.,4.8
1981-08-24 12:03:34.550 ,1,0,0.,4.8,124.,4.8,0.,4.8,0.,4.8
1981-08-24 12:03:39.350 ,1,0,0.,4.8,152.,4.8,0.,4.8,0.,4.8
1981-08-24 12:03:44.150 ,1,0,0.,4.8,140.,4.8,0.,4.8,0.,4.8
1981-08-24 12:03:48.950 ,1,0,0.,4.8,140.,4.8,0.,4.8,0.,4.8
1981-08-24 12:03:53.750 ,1,0,0.,4.8,168.,4.8,0.,4.8,0.,4.8
1981-08-24 12:03:58.550 ,1,0,0.,4.8,156.,4.8,0.,4.8,0.,4.8
1981-08-24 12:04:03.350 ,0,0,0.,4.8,172.,4.8,0.,4.8,0.,4.8
1981-08-24 12:04:08.150 ,0,0,0.,4.8,132.,4.8,0.,4.8,0.,4.8
1981-08-24 12:04:12.950 ,0,0,0.,4.8,132.,4.8,0.,4.8,0.,4.8
1981-08-24 12:04:17.750 ,0,0,0.,4.8,136.,4.8,0.,4.8,0.,4.8
1981-08-24 12:04:22.550 ,0,0,0.,4.8,144.,4.8,0.,4.8,0.,4.8
1981-08-24 12:04:27.350 ,0,0,0.,4.8,132.,4.8,0.,4.8,0.,4.8
1981-08-24 12:04:32.150 ,0,0,0.,4.8,140.,4.8,0.,4.8,0.,4.8
1981-08-24 12:04:36.950 ,0,0,0.,4.8,164.,4.8,0.,4.8,0.,4.8
1981-08-24 12:04:41.750 ,0,0,0.,4.8,144.,4.8,0.,4.8,0.,4.8
1981-08-24 12:04:46.550 ,0,0,0.,4.8,152.,4.8,0.,4.8,0.,4.8
1981-08-24 12:04:51.350 ,0,0,0.,4.8,152.,4.8,0.,4.8,0.,4.8
1981-08-24 12:04:56.150 ,0,0,0.,4.8,120.,4.8,0.,4.8,0.,4.8
1981-08-24 12:05:00.950 ,0,0,0.,4.8,148.,4.8,0.,4.8,0.,4.8
1981-08-24 12:05:05.750 ,0,0,0.,4.8,164.,4.8,0.,4.8,0.,4.8
1981-08-24 12:05:10.550 ,0,0,0.,4.8,160.,4.8,0.,4.8,0.,4.8
1981-08-24 12:05:15.350 ,0,0,0.,4.8,144.,4.8,0.,4.8,0.,4.8
1981-08-24 12:05:20.150 ,0,0,0.,4.8,140.,4.8,0.,4.8,0.,4.8
1981-08-24 12:05:24.950 ,0,0,0.,4.8,144.,4.8,0.,4.8,0.,4.8
1981-08-24 12:05:29.750 ,0,0,0.,4.8,148.,4.8,0.,4.8,0.,4.8
1981-08-24 12:05:34.550 ,0,0,0.,4.8,160.,4.8,0.,4.8,0.,4.8
1981-08-24 12:05:39.350 ,1,0,0.,4.8,156.,4.8,0.,4.8,0.,4.8
1981-08-24 12:05:44.150 ,1,0,0.,4.8,148.,4.8,0.,4.8,0.,4.8
1981-08-24 12:05:48.950 ,1,0,0.,4.8,128.,4.8,0.,4.8,0.,4.8
1981-08-24 12:05:53.750 ,1,0,0.,4.8,148.,4.8,0.,4.8,0.,4.8
1981-08-24 12:05:58.550 ,1,0,0.,4.8,132.,4.8,0.,4.8,0.,4.8
1981-08-24 12:06:03.350 ,1,0,0.,4.8,156.,4.8,0.,4.8,0.,4.8
1981-08-24 12:06:08.150 ,1,0,0.,4.8,132.,4.8,0.,4.8,0.,4.8
1981-08-24 12:06:12.950 ,1,0,0.,4.8,172.,4.8,0.,4.8,0.,4.8
1981-08-24 12:06:17.750 ,1,0,0.,4.8,172.,4.8,0.,4.8,0.,4.8
1981-08-24 12:06:22.550 ,1,0,0.,4.8,136.,4.8,0.,4.8,0.,4.8
1981-08-24 12:06:27.350 ,2,0,0.,4.8,160.,4.8,0.,4.8,0.,4.8
1981-08-24 12:06:32.150 ,2,0,0.,4.8,140.,4.8,0.,4.8,0.,4.8
1981-08-24 12:06:36.950 ,2,0,0.,4.8,132.,4.8,0.,4.8,0.,4.8
1981-08-24 12:06:41.750 ,2,0,0.,4.8,152.,4.8,0.,4.8,0.,4.8
1981-08-24 12:06:46.550 ,2,0,0.,4.8,144.,4.8,0.,4.8,0.,4.8
1981-08-24 12:06:51.350 ,2,0,0.,4.8,140.,4.8,0.,4.8,0.,4.8
1981-08-24 12:06:56.150 ,2,0,0.,4.8,148.,4.8,0.,4.8,0.,4.8
1981-08-24 12:07:00.950 ,2,0,0.,4.8,136.,4.8,0.,4.8,0.,4.8
1981-08-24 12:07:05.750 ,2,0,0.,4.8,152.,4.8,0.,4.8,0.,4.8
1981-08-24 12:07:10.550 ,2,0,0.,4.8,128.,4.8,0.,4.8,0.,4.8
1981-08-24 12:07:15.350 ,3,0,0.,4.8,148.,4.8,0.,4.8,0.,4.8
1981-08-24 12:07:20.150 ,3,0,0.,4.8,152.,4.8,0.,4.8,0.,4.8
1981-08-24 12:07:24.950 ,3,0,0.,4.8,148.,4.8,0.,4.8,0.,4.8
1981-08-24 12:07:29.750 ,3,0,0.,4.8,128.,4.8,0.,4.8,0.,4.8
1981-08-24 12:07:34.550 ,3,0,0.,4.8,128.,4.8,0.,4.8,0.,4.8
1981-08-24 12:07:39.350 ,3,0,0.,4.8,152.,4.8,0.,4.8,0.,4.8
1981-08-24 12:07:44.150 ,3,0,0.,4.8,136.,4.8,0.,4.8,0.,4.8
1981-08-24 12:07:48.950 ,3,0,0.,4.8,152.,4.8,0.,4.8,0.,4.8
1981-08-24 12:07:53.750 ,3,0,0.,4.8,120.,4.8,0.,4.8,0.,4.8
1981-08-24 12:07:58.550 ,3,0,0.,4.8,156.,4.8,0.,4.8,0.,4.8
1981-08-24 12:08:03.350 ,4,0,0.,4.8,168.,4.8,0.,4.8,0.,4.8
1981-08-24 12:08:08.150 ,4,0,0.,4.8,164.,4.8,0.,4.8,0.,4.8
1981-08-24 12:08:12.950 ,4,0,0.,4.8,152.,4.8,0.,4.8,0.,4.8
1981-08-24 12:08:17.750 ,4,0,0.,4.8,148.,4.8,0.,4.8,0.,4.8
1981-08-24 12:08:22.550 ,4,0,0.,4.8,132.,4.8,0.,4.8,0.,4.8
1981-08-24 12:08:27.350 ,4,0,0.,4.8,132.,4.8,0.,4.8,0.,4.8
1981-08-24 12:08:32.150 ,4,0,0.,4.8,140.,4.8,0.,4.8,0.,4.8
1981-08-24 12:08:36.950 ,4,0,0.,4.8,144.,4.8,0.,4.8,0.,4.8
1981-08-24 12:08:41.750 ,4,0,0.,4.8,144.,4.8,0.,4.8,0.,4.8
1981-08-24 12:08:46.550 ,4,0,0.,4.8,144.,4.8,0.,4.8,0.,4.8
1981-08-24 12:08:51.350 ,5,0,0.,4.8,160.,4.8,0.,4.8,0.,4.8
1981-08-24 12:08:56.150 ,5,0,0.,4.8,164.,4.8,0.,4.8,0.,4.8
1981-08-24 12:09:00.950 ,5,0,0.,4.8,152.,4.8,0.,4.8,0.,4.8
1981-08-24 12:09:05.750 ,5,0,0.,4.8,144.,4.8,0.,4.8,0.,4.8
1981-08-24 12:09:10.550 ,5,0,0.,4.8,156.,4.8,0.,4.8,0.,4.8
1981-08-24 12:09:15.350 ,0,0,0.,4.8,136.,4.8,0.,4.8,0.,4.8
1981-08-24 12:09:20.150 ,0,0,0.,4.8,156.,4.8,0.,4.8,0.,4.8
1981-08-24 12:09:24.950 ,0,0,0.,4.8,152.,4.8,0.,4.8,0.,4.8
1981-08-24 12:09:29.750 ,0,0,,0,,0,,0,,0
1981-08-24 12:09:34.550 ,0,0,0.,4.8,144.,4.8,0.,4.8,0.,4.8
1981-08-24 12:09:39.350 ,6,0,0.,4.8,168.,4.8,0.,4.8,0.,4.8
1981-08-24 12:09:44.150 ,6,0,0.,4.8,156.,4.8,0.,4.8,0.,4.8
1981-08-24 12:09:48.950 ,6,0,0.,4.8,132.,4.8,0.,4.8,0.,4.8
1981-08-24 12:09:53.750 ,6,0,0.,4.8,140.,4.8,0.,4.8,0.,4.8
1981-08-24 12:09:58.550 ,6,0,0.,4.8,164.,4.8,0.,4.8,0.,4.8
1981-08-24 12:10:03.350 ,6,0,,0,,0,,0,,0
1981-08-24 12:10:08.150 ,6,0,0.,4.8,144.,4.8,0.,4.8,0.,4.8
1981-08-24 12:10:12.950 ,6,0,0.,4.8,132.,4.8,0.,4.8,0.,4.8
1981-08-24 12:10:17.750 ,6,0,0.,4.8,148.,4.8,0.,4.8,0.,4.8
1981-08-24 12:10:22.550 ,6,0,0.,4.8,156.,4.8,0.,4.8,0.,4.8
1981-08-24 12:10:27.350 ,7,0,0.,4.8,140.,4.8,0.,4.8,0.,4.8
1981-08-24 12:10:32.150 ,7,0,0.,4.8,152.,4.8,0.,4.8,0.,4.8
1981-08-24 12:10:36.950 ,7,0,0.,4.8,128.,4.8,0.,4.8,0.,4.8
1981-08-24 12:10:41.750 ,7,0,0.,4.8,164.,4.8,0.,4.8,0.,4.8
1981-08-24 12:10:46.550 ,7,0,0.,4.8,168.,4.8,0.,4.8,0.,4.8
1981-08-24 12:10:51.350 ,7,0,0.,4.8,140.,4.8,0.,4.8,0.,4.8
1981-08-24 12:10:56.150 ,7,0,0.,4.8,136.,4.8,0.,4.8,0.,4.8
1981-08-24 12:11:00.950 ,7,0,0.,4.8,148.,4.8,0.,4.8,0.,4.8
1981-08-24 12:11:05.750 ,7,0,0.,4.8,112.,4.8,0.,4.8,0.,4.8
1981-08-24 12:11:10.550 ,7,0,0.,4.8,172.,4.8,0.,4.8,0.,4.8
1981-08-24 12:11:15.350 ,7,0,0.,4.8,148.,4.8,0.,4.8,0.,4.8
1981-08-24 12:11:20.150 ,7,0,0.,4.8,144.,4.8,0.,4.8,0.,4.8
1981-08-24 12:11:24.950 ,7,0,0.,4.8,140.,4.8,0.,4.8,0.,4.8
1981-08-24 12:11:29.750 ,7,0,0.,4.8,136.,4.8,0.,4.8,0.,4.8
1981-08-24 12:11:34.550 ,7,0,0.,4.8,156.,4.8,0.,4.8,0.,4.8
1981-08-24 12:11:39.350 ,6,0,0.,4.8,144.,4.8,0.,4.8,0.,4.8
1981-08-24 12:11:44.150 ,6,0,0.,4.8,144.,4.8,0.,4.8,0.,4.8
1981-08-24 12:11:48.950 ,6,0,0.,4.8,144.,4.8,0.,4.8,0.,4.8
1981-08-24 12:11:53.750 ,6,0,0.,4.8,128.,4.8,0.,4.8,0.,4.8
1981-08-24 12:11:58.550 ,6,0,0.,4.8,152.,4.8,0.,4.8,0.,4.8
1981-08-24 12:12:03.350 ,5,0,0.,4.8,140.,4.8,0.,4.8,0.,4.8
1981-08-24 12:12:08.150 ,5,0,0.,4.8,136.,4.8,0.,4.8,0.,4.8
1981-08-24 12:12:12.950 ,5,0,0.,4.8,148.,4.8,0.,4.8,0.,4.8
1981-08-24 12:12:17.750 ,5,0,0.,4.8,148.,4.8,0.,4.8,0.,4.8
1981-08-24 12:12:22.550 ,5,0,0.,4.8,160.,4.8,0.,4.8,0.,4.8
1981-08-24 12:12:27.350 ,4,0,0.,4.8,148.,4.8,0.,4.8,0.,4.8
1981-08-24 12:12:32.150 ,4,0,0.,4.8,148.,4.8,0.,4.8,0.,4.8
1981-08-24 12:12:36.950 ,4,0,0.,4.8,148.,4.8,0.,4.8,0.,4.8
1981-08-24 12:12:41.750 ,4,0,0.,4.8,144.,4.8,0.,4.8,0.,4.8
1981-08-24 12:12:46.550 ,4,0,0.,4.8,156.,4.8,0.,4.8,0.,4.8
1981-08-24 12:12:51.350 ,0,0,0.,4.8,126.,4.8,0.,4.8,0.,4.8
1981-08-24 12:12:56.150 ,0,0,0.,4.8,140.,4.8,0.,4.8,0.,4.8
1981-08-24 12:13:00.950 ,0,0,0.,4.8,148.,4.8,0.,4.8,0.,4.8
1981-08-24 12:13:05.750 ,0,0,0.,4.8,144.,4.8,0.,4.8,0.,4.8
1981-08-24 12:13:10.550 ,0,0,,0,,0,,0,,0
1981-08-24 12:13:15.350 ,2,0,0.,4.8,160.,4.8,0.,4.8,0.,4.8
1981-08-24 12:13:20.150 ,2,0,0.,4.8,132.,4.8,0.,4.8,0.,4.8
1981-08-24 12:13:24.950 ,2,0,0.,4.8,128.,4.8,0.,4.8,0.,4.8
1981-08-24 12:13:29.750 ,2,0,0.,4.8,136.,4.8,0.,4.8,0.,4.8
1981-08-24 12:13:34.550 ,2,0,0.,4.8,152.,4.8,0.,4.8,0.,4.8
1981-08-24 12:13:39.350 ,1,0,0.,4.8,144.,4.8,0.,4.8,0.,4.8
1981-08-24 12:13:44.150 ,1,0,0.,4.8,144.,4.8,0.,4.8,0.,4.8
1981-08-24 12:13:48.950 ,1,0,0.,4.8,148.,4.8,0.,4.8,0.,4.8
1981-08-24 12:13:53.750 ,1,0,0.,4.8,140.,4.8,0.,4.8,0.,4.8
1981-08-24 12:13:58.550 ,1,0,0.,4.8,136.,4.8,0.,4.8,0.,4.8
1981-08-24 12:14:03.350 ,0,0,0.,4.8,156.,4.8,0.,4.8,0.,4.8
1981-08-24 12:14:08.150 ,0,0,0.,4.8,136.,4.8,0.,4.8,0.,4.8
1981-08-24 12:14:12.950 ,0,0,0.,4.8,168.,4.8,0.,4.8,0.,4.8
1981-08-24 12:14:17.750 ,0,0,0.,4.8,160.,4.8,0.,4.8,0.,4.8
1981-08-24 12:14:22.550 ,0,0,0.,4.8,152.,4.8,0.,4.8,0.,4.8
1981-08-24 12:14:27.350 ,0,0,0.,4.8,156.,4.8,0.,4.8,0.,4.8
1981-08-24 12:14:32.150 ,0,0,0.,4.8,164.,4.8,0.,4.8,0.,4.8
1981-08-24 12:14:36.950 ,0,0,0.,4.8,116.,4.8,0.,4.8,0.,4.8
1981-08-24 12:14:41.750 ,0,0,0.,4.8,168.,4.8,0.,4.8,0.,4.8
1981-08-24 12:14:46.550 ,0,0,0.,4.8,160.,4.8,0.,4.8,0.,4.8
1981-08-24 12:14:51.350 ,1,0,0.,4.8,118.,4.8,0.,4.8,0.,4.8
1981-08-24 12:14:56.150 ,1,0,0.,4.8,140.,4.8,0.,4.8,0.,4.8
1981-08-24 12:15:00.950 ,1,0,0.,4.8,132.,4.8,0.,4.8,0.,4.8
1981-08-24 12:15:05.750 ,1,0,0.,4.8,148.,4.8,0.,4.8,0.,4.8
1981-08-24 12:15:10.550 ,1,0,0.,4.8,144.,4.8,0.,4.8,0.,4.8
1981-08-24 12:15:15.350 ,2,0,0.,4.8,122.,4.8,0.,4.8,0.,4.8
1981-08-24 12:15:20.150 ,2,0,,0,,0,,0,,0
1981-08-24 12:15:24.950 ,2,0,0.,4.8,164.,4.8,0.,4.8,0.,4.8
1981-08-24 12:15:29.750 ,2,0,0.,4.8,164.,4.8,0.,4.8,0.,4.8
1981-08-24 12:15:34.550 ,2,0,0.,4.8,144.,4.8,0.,4.8,0.,4.8
1981-08-24 12:15:39.350 ,3,0,0.,4.8,152.,4.8,0.,4.8,0.,4.8
1981-08-24 12:15:44.150 ,3,0,0.,4.8,168.,4.8,0.,4.8,0.,4.8
1981-08-24 12:15:48.950 ,3,0,0.,4.8,168.,4.8,0.,4.8,0.,4.8
1981-08-24 12:15:53.750 ,3,0,0.,4.8,168.,4.8,0.,4.8,0.,4.8
1981-08-24 12:15:58.550 ,3,0,0.,4.8,148.,4.8,0.,4.8,0.,4.8
1981-08-24 12:16:03.350 ,4,0,0.,4.8,160.,4.8,0.,4.8,0.,4.8
1981-08-24 12:16:08.150 ,4,0,0.,4.8,168.,4.8,0.,4.8,0.,4.8
1981-08-24 12:16:12.950 ,4,0,0.,4.8,164.,4.8,0.,4.8,0.,4.8
1981-08-24 12:16:17.750 ,4,0,0.,4.8,136.,4.8,0.,4.8,0.,4.8
1981-08-24 12:16:22.550 ,4,0,0.,4.8,144.,4.8,0.,4.8,0.,4.8
1981-08-24 12:16:27.350 ,5,0,0.,4.8,160.,4.8,0.,4.8,0.,4.8
1981-08-24 12:16:32.150 ,5,0,0.,4.8,164.,4.8,0.,4.8,0.,4.8
1981-08-24 12:16:36.950 ,5,0,0.,4.8,140.,4.8,0.,4.8,0.,4.8
1981-08-24 12:16:41.750 ,5,0,0.,4.8,172.,4.8,0.,4.8,0.,4.8
1981-08-24 12:16:46.550 ,5,0,0.,4.8,184.,4.8,0.,4.8,0.,4.8
1981-08-24 12:16:51.350 ,6,0,0.,4.8,148.,4.8,0.,4.8,0.,4.8
1981-08-24 12:16:56.150 ,6,0,0.,4.8,156.,4.8,0.,4.8,0.,4.8
1981-08-24 12:17:00.950 ,6,0,0.,4.8,156.,4.8,0.,4.8,0.,4.8
1981-08-24 12:17:05.750 ,6,0,0.,4.8,148.,4.8,0.,4.8,0.,4.8
1981-08-24 12:17:10.550 ,6,0,0.,4.8,156.,4.8,0.,4.8,0.,4.8
1981-08-24 12:17:15.350 ,7,0,0.,4.8,152.,4.8,0.,4.8,0.,4.8
1981-08-24 12:17:20.150 ,7,0,0.,4.8,148.,4.8,0.,4.8,0.,4.8
1981-08-24 12:17:24.950 ,7,0,0.,4.8,144.,4.8,0.,4.8,0.,4.8
1981-08-24 12:17:29.750 ,7,0,0.,4.8,152.,4.8,0.,4.8,0.,4.8
1981-08-24 12:17:34.550 ,7,0,0.,4.8,136.,4.8,0.,4.8,0.,4.8
1981-08-24 12:17:39.350 ,7,0,0.,4.8,148.,4.8,0.,4.8,0.,4.8
1981-08-24 12:17:44.150 ,7,0,0.,4.8,148.,4.8,0.,4.8,0.,4.8
1981-08-24 12:17:48.950 ,7,0,0.,4.8,172.,4.8,0.,4.8,0.,4.8
1981-08-24 12:17:53.750 ,7,0,0.,4.8,164.,4.8,0.,4.8,0.,4.8
1981-08-24 12:17:58.550 ,7,0,0.,4.8,148.,4.8,0.,4.8,0.,4.8
1981-08-24 12:18:03.350 ,7,0,0.,4.8,140.,4.8,0.,4.8,0.,4.8
1981-08-24 12:18:08.150 ,7,0,0.,4.8,156.,4.8,0.,4.8,0.,4.8
1981-08-24 12:18:12.950 ,7,0,0.,4.8,148.,4.8,0.,4.8,0.,4.8
1981-08-24 12:18:17.750 ,7,0,0.,4.8,136.,4.8,0.,4.8,0.,4.8
1981-08-24 12:18:22.550 ,7,0,0.,4.8,132.,4.8,0.,4.8,0.,4.8
1981-08-24 12:18:27.350 ,6,0,0.,4.8,152.,4.8,0.,4.8,0.,4.8
1981-08-24 12:18:32.150 ,6,0,0.,4.8,140.,4.8,0.,4.8,0.,4.8
1981-08-24 12:18:36.950 ,6,0,0.,4.8,144.,4.8,0.,4.8,0.,4.8
1981-08-24 12:18:41.750 ,6,0,0.,4.8,152.,4.8,0.,4.8,0.,4.8
1981-08-24 12:18:46.550 ,6,0,0.,4.8,144.,4.8,0.,4.8,0.,4.8
1981-08-24 12:18:51.350 ,6,0,0.,4.8,152.,4.8,0.,4.8,0.,4.8
1981-08-24 12:18:56.150 ,6,0,0.,4.8,152.,4.8,0.,4.8,0.,4.8
1981-08-24 12:19:00.950 ,6,0,0.,4.8,136.,4.8,0.,4.8,0.,4.8
1981-08-24 12:19:05.750 ,6,0,0.,4.8,132.,4.8,0.,4.8,0.,4.8
1981-08-24 12:19:10.550 ,6,0,0.,4.8,140.,4.8,0.,4.8,0.,4.8
1981-08-24 12:19:15.350 ,5,0,0.,4.8,136.,4.8,0.,4.8,0.,4.8
1981-08-24 12:19:20.150 ,5,0,0.,4.8,140.,4.8,0.,4.8,0.,4.8
1981-08-24 12:19:24.950 ,5,0,0.,4.8,136.,4.8,0.,4.8,0.,4.8
1981-08-24 12:19:29.750 ,5,0,0.,4.8,144.,4.8,0.,4.8,0.,4.8
1981-08-24 12:19:34.550 ,5,0,0.,4.8,168.,4.8,0.,4.8,0.,4.8
1981-08-24 12:19:39.350 ,5,0,0.,4.8,148.,4.8,0.,4.8,0.,4.8
1981-08-24 12:19:44.150 ,5,0,0.,4.8,144.,4.8,0.,4.8,0.,4.8
1981-08-24 12:19:48.950 ,5,0,0.,4.8,160.,4.8,0.,4.8,0.,4.8
1981-08-24 12:19:53.750 ,5,0,0.,4.8,184.,4.8,0.,4.8,0.,4.8
1981-08-24 12:19:58.550 ,5,0,0.,4.8,144.,4.8,0.,4.8,0.,4.8
1981-08-24 12:20:03.350 ,4,0,0.,4.8,152.,4.8,0.,4.8,0.,4.8
1981-08-24 12:20:08.150 ,4,0,0.,4.8,156.,4.8,0.,4.8,0.,4.8
1981-08-24 12:20:12.950 ,4,0,0.,4.8,156.,4.8,0.,4.8,0.,4.8
1981-08-24 12:20:17.750 ,4,0,0.,4.8,160.,4.8,0.,4.8,0.,4.8
1981-08-24 12:20:22.550 ,4,0,0.,4.8,140.,4.8,0.,4.8,0.,4.8
1981-08-24 12:20:27.350 ,4,0,0.,4.8,140.,4.8,0.,4.8,0.,4.8
1981-08-24 12:20:32.150 ,4,0,0.,4.8,122.,4.8,0.,4.8,0.,4.8
1981-08-24 12:20:36.950 ,4,0,0.,4.8,156.,4.8,0.,4.8,0.,4.8
1981-08-24 12:20:41.750 ,4,0,0.,4.8,160.,4.8,0.,4.8,0.,4.8
1981-08-24 12:20:46.550 ,4,0,0.,4.8,148.,4.8,0.,4.8,0.,4.8
1981-08-24 12:20:51.350 ,3,0,0.,4.8,136.,4.8,0.,4.8,0.,4.8
1981-08-24 12:20:56.150 ,3,0,0.,4.8,148.,4.8,0.,4.8,0.,4.8
1981-08-24 12:21:00.950 ,3,0,0.,4.8,140.,4.8,0.,4.8,0.,4.8
1981-08-24 12:21:05.750 ,3,0,0.,4.8,156.,4.8,0.,4.8,0.,4.8
1981-08-24 12:21:10.550 ,3,0,0.,4.8,164.,4.8,0.,4.8,0.,4.8
1981-08-24 12:21:15.350 ,3,0,0.,4.8,144.,4.8,0.,4.8,0.,4.8
1981-08-24 12:21:20.150 ,3,0,0.,4.8,176.,4.8,0.,4.8,0.,4.8
1981-08-24 12:21:24.950 ,3,0,0.,4.8,140.,4.8,0.,4.8,0.,4.8
1981-08-24 12:21:29.750 ,3,0,0.,4.8,144.,4.8,0.,4.8,0.,4.8
1981-08-24 12:21:34.550 ,3,0,0.,4.8,128.,4.8,0.,4.8,0.,4.8
1981-08-24 12:21:39.350 ,2,0,0.,4.8,156.,4.8,0.,4.8,0.,4.8
1981-08-24 12:21:44.150 ,2,0,0.,4.8,164.,4.8,0.,4.8,0.,4.8
1981-08-24 12:21:48.950 ,2,0,0.,4.8,136.,4.8,0.,4.8,0.,4.8
1981-08-24 12:21:53.750 ,2,0,0.,4.8,140.,4.8,0.,4.8,0.,4.8
1981-08-24 12:21:58.550 ,2,0,0.,4.8,144.,4.8,0.,4.8,0.,4.8
1981-08-24 12:22:03.350 ,2,0,0.,4.8,140.,4.8,0.,4.8,0.,4.8
1981-08-24 12:22:08.150 ,2,0,0.,4.8,152.,4.8,0.,4.8,0.,4.8
1981-08-24 12:22:12.950 ,2,0,0.,4.8,160.,4.8,0.,4.8,0.,4.8
1981-08-24 12:22:17.750 ,2,0,0.,4.8,136.,4.8,0.,4.8,0.,4.8
1981-08-24 12:22:22.550 ,2,0,0.,4.8,188.,4.8,0.,4.8,0.,4.8
1981-08-24 12:22:27.350 ,1,0,0.,4.8,160.,4.8,0.,4.8,0.,4.8
1981-08-24 12:22:32.150 ,1,0,0.,4.8,176.,4.8,0.,4.8,0.,4.8
1981-08-24 12:22:36.950 ,1,0,0.,4.8,168.,4.8,0.,4.8,0.,4.8
1981-08-24 12:22:41.750 ,1,0,0.,4.8,152.,4.8,0.,4.8,0.,4.8
1981-08-24 12:22:46.550 ,1,0,0.,4.8,140.,4.8,0.,4.8,0.,4.8
1981-08-24 12:22:51.350 ,1,0,0.,4.8,148.,4.8,0.,4.8,0.,4.8
1981-08-24 12:22:56.150 ,1,0,0.,4.8,144.,4.8,0.,4.8,0.,4.8
1981-08-24 12:23:00.950 ,1,0,0.,4.8,160.,4.8,0.,4.8,0.,4.8
1981-08-24 12:23:05.750 ,1,0,0.,4.8,160.,4.8,0.,4.8,0.,4.8
1981-08-24 12:23:10.550 ,1,0,0.,4.8,124.,4.8,0.,4.8,0.,4.8
1981-08-24 12:23:15.350 ,0,0,0.,4.8,172.,4.8,0.,4.8,0.,4.8
1981-08-24 12:23:20.150 ,0,0,0.,4.8,152.,4.8,0.,4.8,0.,4.8
1981-08-24 12:23:24.950 ,0,0,0.,4.8,160.,4.8,0.,4.8,0.,4.8
1981-08-24 12:23:29.750 ,0,0,0.,4.8,140.,4.8,0.,4.8,0.,4.8
1981-08-24 12:23:34.550 ,0,0,0.,4.8,152.,4.8,0.,4.8,0.,4.8
1981-08-24 12:23:39.350 ,0,0,0.,4.8,152.,4.8,0.,4.8,0.,4.8
1981-08-24 12:23:44.150 ,0,0,0.,4.8,128.,4.8,0.,4.8,0.,4.8
1981-08-24 12:23:48.950 ,0,0,0.,4.8,160.,4.8,0.,4.8,0.,4.8
1981-08-24 12:23:53.750 ,0,0,0.,4.8,148.,4.8,0.,4.8,0.,4.8
1981-08-24 12:23:58.550 ,0,0,0.,4.8,132.,4.8,0.,4.8,0.,4.8
1981-08-24 12:24:03.350 ,0,0,0.,4.8,156.,4.8,0.,4.8,0.,4.8
1981-08-24 12:24:08.150 ,0,0,0.,4.8,132.,4.8,0.,4.8,0.,4.8
1981-08-24 12:24:12.950 ,0,0,0.,4.8,152.,4.8,0.,4.8,0.,4.8
1981-08-24 12:24:17.750 ,0,0,0.,4.8,148.,4.8,0.,4.8,0.,4.8
1981-08-24 12:24:22.550 ,0,0,0.,4.8,160.,4.8,0.,4.8,0.,4.8
1981-08-24 12:24:27.350 ,0,0,0.,4.8,144.,4.8,0.,4.8,0.,4.8
1981-08-24 12:24:32.150 ,0,0,0.,4.8,156.,4.8,0.,4.8,0.,4.8
1981-08-24 12:24:36.950 ,0,0,0.,4.8,144.,4.8,0.,4.8,0.,4.8
1981-08-24 12:24:41.750 ,0,0,0.,4.8,136.,4.8,0.,4.8,0.,4.8
1981-08-24 12:24:46.550 ,0,0,0.,4.8,152.,4.8,0.,4.8,0.,4.8
1981-08-24 12:24:51.350 ,1,0,0.,4.8,136.,4.8,0.,4.8,0.,4.8
1981-08-24 12:24:56.150 ,1,0,0.,4.8,164.,4.8,0.,4.8,0.,4.8
1981-08-24 12:25:00.950 ,1,0,0.,4.8,136.,4.8,0.,4.8,0.,4.8
1981-08-24 12:25:05.750 ,1,0,0.,4.8,132.,4.8,0.,4.8,0.,4.8
1981-08-24 12:25:10.550 ,1,0,0.,4.8,128.,4.8,0.,4.8,0.,4.8
1981-08-24 12:25:15.350 ,1,0,0.,4.8,152.,4.8,0.,4.8,0.,4.8
1981-08-24 12:25:20.150 ,1,0,0.,4.8,132.,4.8,0.,4.8,0.,4.8
1981-08-24 12:25:24.950 ,1,0,0.,4.8,156.,4.8,0.,4.8,0.,4.8
1981-08-24 12:25:29.750 ,1,0,0.,4.8,128.,4.8,0.,4.8,0.,4.8
1981-08-24 12:25:34.550 ,1,0,0.,4.8,112.,4.8,0.,4.8,0.,4.8
1981-08-24 12:25:39.350 ,2,0,0.,4.8,176.,4.8,0.,4.8,0.,4.8
1981-08-24 12:25:44.150 ,2,0,0.,4.8,164.,4.8,0.,4.8,0.,4.8
1981-08-24 12:25:48.950 ,2,0,0.,4.8,156.,4.8,0.,4.8,0.,4.8
1981-08-24 12:25:53.750 ,2,0,0.,4.8,156.,4.8,0.,4.8,0.,4.8
1981-08-24 12:25:58.550 ,2,0,0.,4.8,144.,4.8,0.,4.8,0.,4.8
1981-08-24 12:26:03.350 ,2,0,0.,4.8,156.,4.8,0.,4.8,0.,4.8
1981-08-24 12:26:08.150 ,2,0,0.,4.8,136.,4.8,0.,4.8,0.,4.8
1981-08-24 12:26:12.950 ,2,0,0.,4.8,136.,4.8,0.,4.8,0.,4.8
1981-08-24 12:26:17.750 ,2,0,0.,4.8,148.,4.8,0.,4.8,0.,4.8
1981-08-24 12:26:22.550 ,2,0,0.,4.8,148.,4.8,0.,4.8,0.,4.8
1981-08-24 12:26:27.350 ,3,0,0.,4.8,156.,4.8,0.,4.8,0.,4.8
1981-08-24 12:26:32.150 ,3,0,0.,4.8,140.,4.8,0.,4.8,0.,4.8
1981-08-24 12:26:36.950 ,3,0,0.,4.8,120.,4.8,0.,4.8,0.,4.8
1981-08-24 12:26:41.750 ,3,0,0.,4.8,160.,4.8,0.,4.8,0.,4.8
1981-08-24 12:26:46.550 ,3,0,0.,4.8,168.,4.8,0.,4.8,0.,4.8
1981-08-24 12:26:51.350 ,3,0,0.,4.8,148.,4.8,0.,4.8,0.,4.8
1981-08-24 12:26:56.150 ,3,0,0.,4.8,156.,4.8,0.,4.8,0.,4.8
1981-08-24 12:27:00.950 ,3,0,0.,4.8,172.,4.8,0.,4.8,0.,4.8
1981-08-24 12:27:05.750 ,3,0,0.,4.8,156.,4.8,0.,4.8,0.,4.8
1981-08-24 12:27:10.550 ,3,0,0.,4.8,168.,4.8,0.,4.8,0.,4.8
1981-08-24 12:27:15.350 ,4,0,0.,4.8,172.,4.8,0.,4.8,0.,4.8
1981-08-24 12:27:20.150 ,4,0,0.,4.8,132.,4.8,0.,4.8,0.,4.8
1981-08-24 12:27:24.950 ,4,0,0.,4.8,148.,4.8,0.,4.8,0.,4.8
1981-08-24 12:27:29.750 ,4,0,0.,4.8,144.,4.8,0.,4.8,0.,4.8
1981-08-24 12:27:34.550 ,4,0,0.,4.8,160.,4.8,0.,4.8,0.,4.8
1981-08-24 12:27:39.350 ,4,0,0.,4.8,160.,4.8,0.,4.8,0.,4.8
1981-08-24 12:27:44.150 ,4,0,0.,4.8,164.,4.8,0.,4.8,0.,4.8
1981-08-24 12:27:48.950 ,4,0,0.,4.8,136.,4.8,0.,4.8,0.,4.8
1981-08-24 12:27:53.750 ,4,0,0.,4.8,128.,4.8,0.,4.8,0.,4.8
1981-08-24 12:27:58.550 ,4,0,0.,4.8,152.,4.8,0.,4.8,0.,4.8
1981-08-24 12:28:03.350 ,5,0,0.,4.8,144.,4.8,0.,4.8,0.,4.8
1981-08-24 12:28:08.150 ,5,0,0.,4.8,132.,4.8,0.,4.8,0.,4.8
1981-08-24 12:28:12.950 ,5,0,0.,4.8,168.,4.8,0.,4.8,0.,4.8
1981-08-24 12:28:17.750 ,5,0,0.,4.8,152.,4.8,0.,4.8,0.,4.8
1981-08-24 12:28:22.550 ,5,0,0.,4.8,136.,4.8,0.,4.8,0.,4.8
1981-08-24 12:28:27.350 ,5,0,0.,4.8,136.,4.8,0.,4.8,0.,4.8
1981-08-24 12:28:32.150 ,5,0,0.,4.8,172.,4.8,0.,4.8,0.,4.8
1981-08-24 12:28:36.950 ,5,0,0.,4.8,144.,4.8,0.,4.8,0.,4.8
1981-08-24 12:28:41.750 ,5,0,0.,4.8,144.,4.8,0.,4.8,0.,4.8
1981-08-24 12:28:46.550 ,5,0,0.,4.8,152.,4.8,0.,4.8,0.,4.8
1981-08-24 12:28:51.350 ,6,0,0.,4.8,172.,4.8,0.,4.8,0.,4.8
1981-08-24 12:28:56.150 ,6,0,0.,4.8,136.,4.8,0.,4.8,0.,4.8
1981-08-24 12:29:00.950 ,6,0,0.,4.8,136.,4.8,0.,4.8,0.,4.8
1981-08-24 12:29:05.750 ,6,0,0.,4.8,140.,4.8,0.,4.8,0.,4.8
1981-08-24 12:29:10.550 ,6,0,0.,4.8,148.,4.8,0.,4.8,0.,4.8
1981-08-24 12:29:15.350 ,6,0,0.,4.8,126.,4.8,0.,4.8,0.,4.8
1981-08-24 12:29:20.150 ,6,0,0.,4.8,148.,4.8,0.,4.8,0.,4.8
1981-08-24 12:29:24.950 ,6,0,0.,4.8,140.,4.8,0.,4.8,0.,4.8
1981-08-24 12:29:29.750 ,6,0,0.,4.8,172.,4.8,0.,4.8,0.,4.8
1981-08-24 12:29:34.550 ,6,0,0.,4.8,160.,4.8,0.,4.8,0.,4.8
1981-08-24 12:29:39.350 ,7,0,0.,4.8,148.,4.8,0.,4.8,0.,4.8
1981-08-24 12:29:44.150 ,7,0,0.,4.8,176.,4.8,0.,4.8,0.,4.8
1981-08-24 12:29:48.950 ,7,0,0.,4.8,164.,4.8,0.,4.8,0.,4.8
1981-08-24 12:29:53.750 ,7,0,0.,4.8,148.,4.8,0.,4.8,0.,4.8
1981-08-24 12:29:58.550 ,7,0,0.,4.8,132.,4.8,0.,4.8,0.,4.8
1981-08-24 12:30:03.350 ,7,0,0.,4.8,144.,4.8,0.,4.8,0.,4.8
1981-08-24 12:30:08.150 ,7,0,0.,4.8,144.,4.8,0.,4.8,0.,4.8
1981-08-24 12:30:12.950 ,7,0,0.,4.8,164.,4.8,0.,4.8,0.,4.8
1981-08-24 12:30:17.750 ,7,0,0.,4.8,148.,4.8,0.,4.8,0.,4.8
1981-08-24 12:30:22.550 ,7,0,0.,4.8,160.,4.8,0.,4.8,0.,4.8
1981-08-24 12:30:27.350 ,7,0,0.,4.8,160.,4.8,0.,4.8,0.,4.8
1981-08-24 12:30:32.150 ,7,0,0.,4.8,144.,4.8,0.,4.8,0.,4.8
1981-08-24 12:30:36.950 ,7,0,0.,4.8,164.,4.8,0.,4.8,0.,4.8
1981-08-24 12:30:41.750 ,7,0,0.,4.8,144.,4.8,0.,4.8,0.,4.8
1981-08-24 12:30:46.550 ,7,0,0.,4.8,148.,4.8,0.,4.8,0.,4.8
1981-08-24 12:30:51.350 ,6,0,0.,4.8,172.,4.8,0.,4.8,0.,4.8
1981-08-24 12:30:56.150 ,6,0,0.,4.8,160.,4.8,0.,4.8,0.,4.8
1981-08-24 12:31:00.950 ,6,0,0.,4.8,136.,4.8,0.,4.8,0.,4.8
1981-08-24 12:31:05.750 ,6,0,0.,4.8,128.,4.8,0.,4.8,0.,4.8
1981-08-24 12:31:10.550 ,6,0,0.,4.8,140.,4.8,0.,4.8,0.,4.8
1981-08-24 12:31:15.350 ,5,0,0.,4.8,164.,4.8,0.,4.8,0.,4.8
1981-08-24 12:31:20.150 ,5,0,0.,4.8,136.,4.8,0.,4.8,0.,4.8
1981-08-24 12:31:24.950 ,5,0,0.,4.8,172.,4.8,0.,4.8,0.,4.8
1981-08-24 12:31:29.750 ,5,0,0.,4.8,132.,4.8,0.,4.8,0.,4.8
1981-08-24 12:31:34.550 ,5,0,0.,4.8,148.,4.8,0.,4.8,0.,4.8
1981-08-24 12:31:39.350 ,4,0,0.,4.8,152.,4.8,0.,4.8,0.,4.8
1981-08-24 12:31:44.150 ,4,0,0.,4.8,140.,4.8,0.,4.8,0.,4.8
1981-08-24 12:31:48.950 ,4,0,0.,4.8,140.,4.8,0.,4.8,0.,4.8
1981-08-24 12:31:53.750 ,4,0,0.,4.8,132.,4.8,0.,4.8,0.,4.8
1981-08-24 12:31:58.550 ,4,0,0.,4.8,136.,4.8,0.,4.8,0.,4.8
1981-08-24 12:32:03.350 ,3,0,0.,4.8,148.,4.8,0.,4.8,0.,4.8
1981-08-24 12:32:08.150 ,3,0,0.,4.8,144.,4.8,0.,4.8,0.,4.8
1981-08-24 12:32:12.950 ,3,0,0.,4.8,160.,4.8,0.,4.8,0.,4.8
1981-08-24 12:32:17.750 ,3,0,0.,4.8,148.,4.8,0.,4.8,0.,4.8
1981-08-24 12:32:22.550 ,3,0,0.,4.8,132.,4.8,0.,4.8,0.,4.8